Location: Tel Aviv
(32.0670°N, 34.7670°E)
Time: 14:09:19
(UTC+03:00)

Explorer 11/Cluster Stage 4 - Pass Details

Date: 21 September 2024
Orbit: 464 x 1208 km, 28.8° (Epoch: 06 October)

Event Time Altitude Azimuth Distance (km) Brightness Sun altitude
Rises 03:00:47 0° 212° (SSW) 2,673 - -42.4°
Reaches altitude 10° 03:03:34 10° 191° (S) 1,891 - -41.9°
Maximum altitude 03:06:23 17° 150° (SSE) 1,617 - -41.4°
Drops below altitude 10° 03:09:32 10° 111° (ESE) 2,162 - -40.9°
Exits shadow 03:10:30 - 104° (ESE) 2,443 9.5 -40.7°
Sets 03:13:01 0° 92° (E) 3,260 10.4 -40.2°
